N3PL Weather Reports


Display with metric or nautical units.
time (UTC)temp
F
wind
direction
speed
MPH
gust
MPH
rain 1hr
in
rain 24hr
in
rain mn
in
humidity
%
barometer
mb
20260508224611 65 284 0.0 0.0 0.00 0.00 0.00 36 1006.3
20260508224052 65 284 0.0 0.0 0.00 0.00 0.00 35 1006.4
20260508223555 65 284 0.0 0.0 0.00 0.00 0.00 35 1006.4
20260508223058 65 284 0.0 0.0 0.00 0.00 0.00 34 1006.4
20260508222603 65 284 0.0 0.0 0.00 0.00 0.00 34 1006.4
20260508222047 66 284 0.0 0.0 0.00 0.00 0.00 32 1006.4
20260508221551 66 284 0.0 0.0 0.00 0.00 0.00 30 1006.4
20260508221101 66 284 0.0 0.0 0.00 0.00 0.00 30 1006.3
20260508220548 66 284 0.0 0.0 0.00 0.00 0.00 28 1006.3
20260508220053 66 284 0.0 0.0 0.00 0.00 0.00 28 1006.3
20260508215558 66 284 0.0 0.0 0.00 0.00 0.00 28 1006.3
20260508215100 66 284 0.0 0.0 0.00 0.00 0.00 29 1006.3
20260508214647 66 267 0.0 0.0 0.00 0.00 0.00 29 1006.3
20260508214002 66 284 0.0 0.0 0.00 0.00 0.00 30 1006.3
20260508213504 66 284 0.0 0.0 0.00 0.00 0.00 28 1006.3
20260508213058 66 284 0.0 0.0 0.00 0.00 0.00 29 1006.3
20260508212601 66 284 0.0 0.0 0.00 0.00 0.00 28 1006.2
20260508212104 66 311 0.0 0.0 0.00 0.00 0.00 28 1006.2
20260508211501 67 288 0.0 0.0 0.00 0.00 0.00 28 1006.2
20260508211053 67 288 0.0 0.0 0.00 0.00 0.00 27 1006.1
20260508210557 68 265 0.0 0.0 0.00 0.00 0.00 26 1006.1
20260508210101 68 241 0.0 0.0 0.00 0.00 0.00 25 1006.1
20260508205605 67 240 0.0 0.0 0.00 0.00 0.00 27 1006.2
20260508205107 67 292 0.0 0.0 0.00 0.00 0.00 28 1006.2
20260508204504 67 272 0.0 0.0 0.00 0.00 0.00 27 1006.2
20260508204008 66 263 0.0 0.0 0.00 0.00 0.00 27 1006.5
20260508203507 66 306 0.0 0.0 0.00 0.00 0.00 29 1006.5
20260508203120 66 328 0.0 0.0 0.00 0.00 0.00 29 1006.5
20260508202552 65 278 0.0 0.0 0.00 0.00 0.00 28 1006.7
20260508202058 65 278 0.0 0.0 0.00 0.00 0.00 28 1006.7
20260508201602 65 265 0.0 0.0 0.00 0.00 0.00 28 1006.7
20260508201104 65 256 0.0 0.0 0.00 0.00 0.00 28 1006.7
20260508200605 65 275 0.0 0.0 0.00 0.00 0.00 29 1006.7
20260508200001 65 270 0.0 0.0 0.00 0.00 0.00 28 1006.7
20260508195555 66 319 0.0 0.0 0.00 0.00 0.00 28 1006.8
20260508195057 66 301 0.0 0.0 0.00 0.00 0.00 30 1006.8
20260508194601 66 260 0.0 0.0 0.00 0.00 0.00 27 1006.8
20260508194104 66 272 0.0 0.0 0.00 0.00 0.00 29 1007.1
20260508193551 66 313 0.0 0.0 0.00 0.00 0.00 30 1007.1
20260508193140 65 281 0.0 0.0 0.00 0.00 0.00 28 1007.1
20260508192502 65 265 0.0 0.0 0.00 0.00 0.00 31 1007.1
20260508192054 65 335 0.0 0.0 0.00 0.00 0.00 31 1007.1
20260508191604 66 312 0.0 0.0 0.00 0.00 0.00 31 1007.1
20260508191059 66 312 0.0 0.0 0.00 0.00 0.00 29 1007.2
20260508190602 66 275 0.0 0.0 0.00 0.00 0.00 28 1007.2
20260508190049 66 309 0.0 0.0 0.00 0.00 0.00 31 1007.2
20260508185558 66 319 0.0 0.0 0.00 0.00 0.00 28 1007.3
20260508185059 66 301 0.0 0.0 0.00 0.00 0.00 29 1007.3
20260508184603 65 268 0.0 0.0 0.00 0.00 0.00 29 1007.3
20260508184105 65 285 0.0 0.0 0.00 0.00 0.00 28 1007.6
20260508183502 65 250 0.0 0.0 0.00 0.00 0.00 28 1007.6
20260508183004 65 294 0.0 0.0 0.00 0.00 0.00 28 1007.6
20260508182556 66 275 0.0 0.0 0.00 0.00 0.00 29 1007.8
20260508182058 65 272 0.0 0.0 0.00 0.00 0.00 28 1007.8
20260508181603 66 280 0.0 0.0 0.00 0.00 0.00 27 1007.8
20260508181104 66 339 0.0 0.0 0.00 0.00 0.00 29 1007.9
20260508180501 65 260 0.0 0.0 0.00 0.00 0.00 27 1007.9
20260508180004 65 257 0.0 0.0 0.00 0.00 0.00 28 1007.9
20260508175508 65 332 0.0 0.0 0.00 0.00 0.00 28 1007.9
20260508175105 65 312 0.0 0.0 0.00 0.00 0.00 31 1007.9
20260508174604 65 304 0.0 0.0 0.00 0.00 0.00 32 1007.9
20260508174058 65 315 0.0 0.0 0.00 0.00 0.00 31 1008.0
20260508173602 65 291 0.0 0.0 0.00 0.00 0.00 30 1008.0
20260508173055 65 268 0.0 0.0 0.00 0.00 0.00 31 1008.0
20260508172600 64 311 0.0 0.0 0.00 0.00 0.00 31 1008.0
20260508172059 65 256 0.0 0.0 0.00 0.00 0.00 29 1008.0
20260508171602 65 237 0.0 0.0 0.00 0.00 0.00 29 1008.0
20260508171051 64 195 0.0 0.0 0.00 0.00 0.00 31 1008.2
20260508170550 64 278 0.0 0.0 0.00 0.00 0.00 31 1008.2
20260508170055 64 278 0.0 0.0 0.00 0.00 0.00 30 1008.2
20260508165600 65 270 0.0 0.0 0.00 0.00 0.00 29 1008.2
20260508165104 65 274 0.0 0.0 0.00 0.00 0.00 31 1008.2
20260508164502 65 320 0.0 0.0 0.00 0.00 0.00 30 1008.2
20260508164056 65 285 0.0 0.0 0.00 0.00 0.00 30 1008.4
20260508163559 64 270 0.0 0.0 0.00 0.00 0.00 31 1008.4
20260508163102 64 294 0.0 0.0 0.00 0.00 0.00 29 1008.4
20260508162606 63 289 0.0 0.0 0.00 0.00 0.00 32 1008.8
20260508162004 63 275 0.0 0.0 0.00 0.00 0.00 31 1008.8
20260508161504 63 315 0.0 0.0 0.00 0.00 0.00 29 1008.8
20260508161007 63 268 0.0 0.0 0.00 0.00 0.00 31 1009.0
20260508160510 63 267 0.0 0.0 0.00 0.00 0.00 31 1009.0
20260508160104 62 270 0.0 0.0 0.00 0.00 0.00 31 1009.0
20260508155501 63 304 0.0 0.0 0.00 0.00 0.00 31 1009.2
20260508155004 62 282 0.0 0.0 0.00 0.00 0.00 30 1009.2
20260508154508 62 280 0.0 0.0 0.00 0.00 0.00 33 1009.2
20260508154100 61 313 0.0 0.0 0.00 0.00 0.00 32 1009.4
20260508153603 61 319 0.0 0.0 0.00 0.00 0.00 31 1009.4
20260508153059 62 268 0.0 0.0 0.00 0.00 0.00 32 1009.4
20260508152602 61 316 0.0 0.0 0.00 0.00 0.00 35 1009.6
20260508152104 61 316 0.0 0.0 0.00 0.00 0.00 34 1009.6
20260508151503 59 272 0.0 0.0 0.00 0.00 0.00 34 1009.6
20260508151059 59 274 0.0 0.0 0.00 0.00 0.00 35 1009.7
20260508150602 58 267 0.0 0.0 0.00 0.00 0.00 35 1009.7
20260508150004 58 289 0.0 0.0 0.00 0.00 0.00 34 1009.7
20260508145505 58 294 0.0 0.0 0.00 0.00 0.00 35 1009.8
20260508145007 58 253 0.0 0.0 0.00 0.00 0.00 31 1009.8
20260508144511 58 284 0.0 0.0 0.00 0.00 0.00 38 1009.8
20260508144012 58 280 0.0 0.0 0.00 0.00 0.00 41 1009.8
20260508143606 57 280 0.0 0.0 0.00 0.00 0.00 39 1009.8
20260508143104 57 280 0.0 0.0 0.00 0.00 0.00 40 1009.8
20260508142601 57 280 0.0 0.0 0.00 0.00 0.00 40 1009.9
20260508142059 57 311 0.0 0.0 0.00 0.00 0.00 43 1009.9
20260508141554 57 311 0.0 0.0 0.00 0.00 0.00 41 1009.9
20260508141059 56 311 0.0 0.0 0.00 0.00 0.00 40 1010.0
20260508140605 56 311 0.0 0.0 0.00 0.00 0.00 39 1010.0
20260508140003 56 312 0.0 0.0 0.00 0.00 0.00 42 1010.0
20260508135507 55 343 0.0 0.0 0.00 0.00 0.00 44 1010.0
20260508135059 55 343 0.0 0.0 0.00 0.00 0.00 42 1010.0
20260508134607 55 294 0.0 0.0 0.00 0.00 0.00 43 1010.0
20260508134104 55 320 0.0 0.0 0.00 0.00 0.00 43 1010.2
20260508133502 54 318 0.0 0.0 0.00 0.00 0.00 45 1010.2
20260508133003 54 318 0.0 0.0 0.00 0.00 0.00 45 1010.2
20260508132506 54 318 0.0 0.0 0.00 0.00 0.00 48 1010.3
20260508132009 53 318 0.0 0.0 0.00 0.00 0.00 47 1010.3
20260508131600 53 318 0.0 0.0 0.00 0.00 0.00 46 1010.3
20260508131103 53 319 0.0 0.0 0.00 0.00 0.00 47 1010.2
20260508130608 52 319 0.0 0.0 0.00 0.00 0.00 49 1010.2
20260508130002 52 319 0.0 0.0 0.00 0.00 0.00 50 1010.2
20260508125504 52 319 0.0 0.0 0.00 0.00 0.00 53 1010.4
20260508125058 51 318 0.0 0.0 0.00 0.00 0.00 53 1010.4
20260508124601 51 318 0.0 0.0 0.00 0.00 0.00 54 1010.4
20260508124002 50 318 0.0 0.0 0.00 0.00 0.00 58 1010.3
20260508123554 50 318 0.0 0.0 0.00 0.00 0.00 60 1010.3
20260508123104 50 318 0.0 0.0 0.00 0.00 0.00 63 1010.3
20260508122607 49 318 0.0 0.0 0.00 0.00 0.00 62 1010.1
20260508122003 49 318 0.0 0.0 0.00 0.00 0.00 67 1010.1
20260508121506 48 318 0.0 0.0 0.00 0.00 0.00 67 1010.1
20260508121011 48 318 0.0 0.0 0.00 0.00 0.00 70 1010.1
20260508120604 47 318 0.0 0.0 0.00 0.00 0.00 71 1010.1
20260508120005 47 318 0.0 0.0 0.00 0.00 0.00 72 1010.1
20260508115505 47 318 0.0 0.0 0.00 0.00 0.00 73 1010.0
20260508115059 46 318 0.0 0.0 0.00 0.00 0.00 74 1010.0
20260508114610 46 318 0.0 0.0 0.00 0.00 0.00 74 1010.0
20260508114003 46 318 0.0 0.0 0.00 0.00 0.00 74 1009.8
20260508113508 45 318 0.0 0.0 0.00 0.00 0.00 75 1009.8
20260508113106 45 318 0.0 0.0 0.00 0.00 0.00 76 1009.8
20260508112502 45 318 0.0 0.0 0.00 0.00 0.00 77 1009.8
20260508112005 45 318 0.0 0.0 0.00 0.00 0.00 77 1009.8
20260508111508 44 318 0.0 0.0 0.00 0.00 0.00 77 1009.8
20260508111101 44 318 0.0 0.0 0.00 0.00 0.00 77 1009.6
20260508110502 44 318 0.0 0.0 0.00 0.00 0.00 77 1009.6
20260508110006 44 318 0.0 0.0 0.00 0.00 0.00 77 1009.6
20260508105602 44 318 0.0 0.0 0.00 0.00 0.00 78 1009.4
20260508105102 44 318 0.0 0.0 0.00 0.00 0.00 78 1009.4
20260508104604 44 318 0.0 0.0 0.00 0.00 0.00 79 1009.4
20260508104002 44 318 0.0 0.0 0.00 0.00 0.00 80 1009.3
20260508103505 44 318 0.0 0.0 0.00 0.00 0.00 80 1009.3
20260508103059 44 318 0.0 0.0 0.00 0.00 0.00 80 1009.3
20260508102603 44 318 0.0 0.0 0.00 0.00 0.00 79 1009.2
20260508102007 44 318 0.0 0.0 0.00 0.00 0.00 79 1009.2
20260508101558 44 318 0.0 0.0 0.00 0.00 0.00 79 1009.2
20260508101106 44 318 0.0 0.0 0.00 0.00 0.00 79 1009.0
20260508100606 44 318 0.0 0.0 0.00 0.00 0.00 78 1009.0
20260508100002 44 318 0.0 0.0 0.00 0.00 0.00 77 1009.0
20260508095509 44 318 0.0 0.0 0.00 0.00 0.00 77 1008.9
20260508095011 45 318 0.0 0.0 0.00 0.00 0.00 76 1008.9
20260508094513 45 318 0.0 0.0 0.00 0.00 0.00 75 1008.9
20260508094106 45 318 0.0 0.0 0.00 0.00 0.00 74 1008.9
20260508093503 46 318 0.0 0.0 0.00 0.00 0.00 73 1008.9
20260508093007 46 318 0.0 0.0 0.00 0.00 0.00 73 1008.9
20260508092559 46 318 0.0 0.0 0.00 0.00 0.00 73 1008.8
20260508092102 46 318 0.0 0.0 0.00 0.00 0.00 73 1008.8
20260508091613 46 318 0.0 0.0 0.00 0.00 0.00 73 1008.8
20260508091001 46 318 0.0 0.0 0.00 0.00 0.00 71 1008.7
20260508090503 47 318 0.0 0.0 0.00 0.00 0.00 70 1008.7
20260508090005 47 318 0.0 0.0 0.00 0.00 0.00 69 1008.7
20260508085510 47 318 0.0 0.0 0.00 0.00 0.00 69 1008.6
20260508085103 47 318 0.0 0.0 0.00 0.00 0.00 69 1008.6
20260508084605 48 318 0.0 0.0 0.00 0.00 0.00 68 1008.6
20260508084001 48 318 0.0 0.0 0.00 0.00 0.00 67 1008.3
20260508083505 48 318 0.0 0.0 0.00 0.00 0.00 67 1008.3
20260508083010 48 318 0.0 0.0 0.00 0.00 0.00 66 1008.3
20260508082603 48 318 0.0 0.0 0.00 0.00 0.00 66 1008.1
20260508082004 49 318 0.0 0.0 0.00 0.00 0.00 65 1008.1
20260508081507 49 318 0.0 0.0 0.00 0.00 0.00 65 1008.1
20260508081100 49 318 0.0 0.0 0.00 0.00 0.00 64 1007.8
20260508080603 49 318 0.0 0.0 0.00 0.00 0.00 64 1007.8
20260508080105 49 318 0.0 0.0 0.00 0.00 0.00 63 1007.8
20260508075507 50 318 0.0 0.0 0.00 0.00 0.00 62 1007.5
20260508075059 50 318 0.0 0.0 0.00 0.00 0.00 62 1007.5
20260508074606 50 282 0.0 0.0 0.00 0.00 0.00 61 1007.5
20260508074002 50 328 0.0 0.0 0.00 0.00 0.00 61 1007.3
20260508073600 51 328 0.0 0.0 0.00 0.00 0.00 60 1007.3
20260508073050 51 308 0.0 0.0 0.00 0.00 0.00 59 1007.3
20260508072549 51 309 0.0 0.0 0.00 0.00 0.00 59 1007.1
20260508072052 51 272 0.0 0.0 0.00 0.00 0.00 59 1007.1
20260508071600 51 285 0.0 0.0 0.00 0.00 0.00 59 1007.1
20260508071100 51 288 0.0 0.0 0.00 0.00 0.00 59 1006.9
20260508070605 51 268 0.0 0.0 0.00 0.00 0.00 59 1006.9
20260508070004 51 287 0.0 0.0 0.00 0.00 0.00 61 1006.9
20260508065600 52 287 0.0 0.0 0.00 0.00 0.00 61 1006.7
20260508065042 52 328 0.0 0.0 0.00 0.00 0.00 63 1006.7
20260508064546 52 285 0.0 0.0 0.00 0.00 0.00 63 1006.7
20260508064053 52 304 0.0 0.0 0.00 0.00 0.00 63 1006.4
20260508063557 52 306 0.0 0.0 0.00 0.00 0.00 63 1006.4
20260508063105 52 325 0.0 0.0 0.00 0.00 0.00 65 1006.4
20260508062603 52 301 0.0 0.0 0.00 0.00 0.00 65 1006.3
20260508062106 51 281 0.0 0.0 0.00 0.00 0.00 67 1006.3
20260508061504 51 319 0.0 0.0 0.00 0.00 0.00 71 1006.3
20260508061006 51 319 0.0 0.0 0.00 0.00 0.00 72 1006.2
20260508060602 51 292 0.0 0.0 0.00 0.00 0.00 73 1006.2
20260508060105 50 292 0.0 0.0 0.00 0.00 0.00 74 1006.2
20260508055504 50 292 0.0 0.0 0.00 0.00 0.00 75 1006.0
20260508055007 50 292 0.0 0.0 0.00 0.00 0.00 75 1006.0
20260508054601 51 292 0.0 0.0 0.00 0.00 0.00 74 1006.0
20260508054103 51 292 0.0 0.0 0.00 0.00 0.00 73 1005.8
20260508053607 51 292 0.0 0.0 0.00 0.00 0.00 73 1005.8
20260508053003 51 292 0.0 0.0 0.00 0.00 0.00 73 1005.8
20260508052600 51 292 0.0 0.0 0.00 0.00 0.00 72 1005.7
20260508052047 52 292 0.0 0.0 0.00 0.00 0.00 71 1005.7
20260508051605 52 292 0.0 0.0 0.00 0.00 0.00 70 1005.7
20260508051057 52 292 0.0 0.0 0.00 0.00 0.00 70 1005.7
20260508050603 52 292 0.0 0.0 0.00 0.00 0.00 69 1005.7
20260508050004 52 292 0.0 0.0 0.00 0.00 0.00 69 1005.7
20260508045559 53 292 0.0 0.0 0.00 0.00 0.00 69 1005.5
20260508045101 53 292 0.0 0.0 0.00 0.00 0.00 68 1005.5
20260508044618 53 292 0.0 0.0 0.00 0.00 0.00 68 1005.5
20260508044105 53 292 0.0 0.0 0.00 0.00 0.00 68 1005.5
20260508043503 53 292 0.0 0.0 0.00 0.00 0.00 67 1005.5
20260508043012 53 292 0.0 0.0 0.00 0.00 0.00 67 1005.5
20260508042510 53 292 0.0 0.0 0.00 0.00 0.00 67 1005.4
20260508042011 53 292 0.0 0.0 0.00 0.00 0.00 67 1005.4
20260508041614 53 292 0.0 0.0 0.00 0.00 0.00 67 1005.4
20260508041002 53 292 0.0 0.0 0.00 0.00 0.00 67 1005.5
20260508040506 53 292 0.0 0.0 0.00 0.00 0.00 68 1005.5
20260508040006 53 292 0.0 0.0 0.00 0.00 0.00 67 1005.5
20260508035600 53 292 0.0 0.0 0.00 0.00 0.00 67 1005.4
20260508035104 53 292 0.0 0.0 0.00 0.00 0.00 67 1005.4
20260508034607 53 292 0.0 0.0 0.00 0.00 0.00 67 1005.4
20260508034001 53 292 0.0 0.0 0.00 0.00 0.00 67 1005.4
20260508033555 53 292 0.0 0.0 0.00 0.00 0.00 67 1005.4
20260508033102 53 292 0.0 0.0 0.00 0.00 0.00 67 1005.4
20260508032604 53 292 0.0 0.0 0.00 0.00 0.00 67 1005.4
20260508032106 53 292 0.0 0.0 0.00 0.00 0.00 67 1005.4
20260508031606 53 292 0.0 0.0 0.00 0.00 0.00 67 1005.4
20260508031003 54 292 0.0 0.0 0.00 0.00 0.00 67 1005.4
20260508030506 54 292 0.0 0.0 0.00 0.00 0.00 67 1005.4
20260508030008 54 292 0.0 0.0 0.00 0.00 0.00 67 1005.4
20260508025600 54 292 0.0 0.0 0.00 0.00 0.00 67 1005.4
20260508025102 54 292 0.0 0.0 0.00 0.00 0.00 67 1005.4
20260508024606 54 292 0.0 0.0 0.00 0.00 0.00 67 1005.4
20260508024101 54 292 0.0 0.0 0.00 0.00 0.00 66 1005.5
20260508023502 53 292 0.0 0.0 0.00 0.00 0.00 66 1005.5
20260508023008 53 292 0.0 0.0 0.00 0.00 0.00 66 1005.5
20260508022600 53 292 0.0 0.0 0.00 0.00 0.00 65 1005.4
20260508022104 53 292 0.0 0.0 0.00 0.00 0.00 64 1005.4
20260508021500 53 292 0.0 0.0 0.00 0.00 0.00 62 1005.4
20260508021006 52 292 0.0 0.0 0.00 0.00 0.00 62 1005.2
20260508020557 52 292 0.0 0.0 0.00 0.00 0.00 62 1005.2
20260508015604 51 292 0.0 0.0 0.00 0.00 0.00 65 1005.0
20260508015001 52 292 0.0 0.0 0.00 0.00 0.00 63 1005.0
20260508014505 52 292 0.0 0.0 0.00 0.00 0.00 62 1005.0
20260508014056 52 292 0.0 0.0 0.00 0.00 0.00 62 1004.8
20260508013600 52 292 0.0 0.0 0.00 0.00 0.00 60 1004.8
20260508013002 53 292 0.0 0.0 0.00 0.00 0.00 60 1004.8
20260508012504 53 292 0.0 0.0 0.00 0.00 0.00 58 1004.6
20260508012007 53 292 0.0 0.0 0.00 0.00 0.00 57 1004.6
20260508011510 54 292 0.0 0.0 0.00 0.00 0.00 57 1004.6
20260508011012 54 292 0.0 0.0 0.00 0.00 0.00 58 1004.4
20260508010515 55 292 0.0 0.0 0.00 0.00 0.00 54 1004.4
20260508010018 55 292 0.0 0.0 0.00 0.00 0.00 55 1004.4
20260508005504 55 292 0.0 0.0 0.00 0.00 0.00 56 1004.3
20260508005057 55 292 0.0 0.0 0.00 0.00 0.00 53 1004.3
20260508004600 56 292 0.0 0.0 0.00 0.00 0.00 54 1004.3
20260508004101 56 292 0.0 0.0 0.00 0.00 0.00 52 1004.2
20260508003504 56 292 0.0 0.0 0.00 0.00 0.00 51 1004.2
20260508003007 57 292 0.0 0.0 0.00 0.00 0.00 50 1004.2
20260508002512 57 292 0.0 0.0 0.00 0.00 0.00 50 1004.1
20260508002104 58 292 0.0 0.0 0.00 0.00 0.00 49 1004.1
20260508001503 58 292 0.0 0.0 0.00 0.00 0.00 43 1004.1
20260508001007 58 292 0.0 0.0 0.00 0.00 0.00 42 1004.0
20260508000604 59 292 0.0 0.0 0.00 0.00 0.00 42 1004.0
20260508000000 59 292 0.0 0.0 0.00 0.00 0.00 43 1004.0
20260507235606 60 292 0.0 0.0 0.00 0.00 0.00 42 1003.8
20260507235001 60 292 0.0 0.0 0.00 0.00 0.00 43 1003.8
20260507234508 60 292 0.0 0.0 0.00 0.00 0.00 44 1003.8
20260507234100 61 292 0.0 0.0 0.00 0.00 0.00 43 1003.7
20260507233604 61 292 0.0 0.0 0.00 0.00 0.00 37 1003.7
20260507233001 61 292 0.0 0.0 0.00 0.00 0.00 33 1003.7
20260507232505 61 292 0.0 0.0 0.00 0.00 0.00 35 1003.8
20260507232008 61 292 0.0 0.0 0.00 0.00 0.00 33 1003.8
20260507231510 62 292 0.0 0.0 0.00 0.00 0.00 35 1003.8
20260507231012 62 287 0.0 0.0 0.00 0.00 0.00 33 1003.7
20260507230606 62 287 0.0 0.0 0.00 0.00 0.00 33 1003.7
20260507230053 62 287 0.0 0.0 0.00 0.00 0.00 33 1003.7
20260507225556 62 287 0.0 0.0 0.00 0.00 0.00 33 1003.6
20260507225059 62 287 0.0 0.0 0.00 0.00 0.00 31 1003.6